Location: Augirein
(42.9320°N, 0.9181°E)
Time: 14:38:08
(UTC+00:00)

NOSS 2-3 (E) - Pass Details

Date: 20 June 2021
Orbit: 555 x 1655 km, 63.4° (Epoch: 23 July)

Event Time Altitude Azimuth Distance (km) Brightness Sun altitude
Exits shadow 00:42:31 38° 272° (W) 910 4.3 -22.8°
Maximum altitude 00:43:32 47° 313° (NW) 816 4.3 -22.8°
Drops below altitude 10° 00:48:08 10° 28° (NNE) 2,169 7.4 -22.6°
Sets 00:50:49 0° 34° (NNE) 3,240 8.4 -22.5°
